This is the latest recevied weather packets stored in our database for station/object W4KAB. If no packets are shown the sender has not sent any weather packets the latest 10 day(s).
| Time | Temp. | Humidity | Pressure | Rain* | Wind** | Luminosity | Snow |
|---|---|---|---|---|---|---|---|
| 1777073546 | 23.33° C | 57% | 1011 hPa | 0 mm | - | 6 W/m² | - |
| 1777073242 | 23.89° C | 56% | 1011.1 hPa | 0 mm | - | 9 W/m² | - |
| 1777072933 | 23.89° C | 54% | 1011 hPa | 0 mm | - | 13 W/m² | - |
| 1777072628 | 23.89° C | 54% | 1011.1 hPa | 0 mm | - | 16 W/m² | - |
| 1777072323 | 24.44° C | 55% | 1010.8 hPa | 0 mm | - | 15 W/m² | - |
| 1777072021 | 25° C | 56% | 1011.1 hPa | 0 mm | - | 17 W/m² | - |
| 1777071713 | 25° C | 55% | 1011.2 hPa | 0 mm | - | 21 W/m² | - |
| 1777071409 | 25.56° C | 54% | 1011.1 hPa | 0 mm | - | 30 W/m² | - |
| 1777071104 | 25.56° C | 53% | 1011.1 hPa | 0 mm | - | 38 W/m² | - |
| 1777070800 | 25.56° C | 53% | 1011.2 hPa | 0 mm | - | 43 W/m² | - |
| 1777070498 | 25.56° C | 50% | 1011.1 hPa | 0 mm | - | 50 W/m² | - |
| 1777070196 | 25.56° C | 49% | 1011.3 hPa | 0 mm | - | 55 W/m² | - |
| 1777069892 | 26.11° C | 47% | 1011.1 hPa | 0 mm | - | 63 W/m² | - |
| 1777069591 | 26.11° C | 45% | 1010.8 hPa | 0 mm | - | 39 W/m² | - |
| 1777069287 | 26.11° C | 44% | 1011.1 hPa | 0 mm | - | 39 W/m² | - |
| 1777068983 | 26.67° C | 46% | 1011.1 hPa | 0 mm | - | 41 W/m² | - |
| 1777068680 | 26.67° C | 42% | 1011.2 hPa | 0 mm | - | 122 W/m² | - |
| 1777068374 | 26.11° C | 46% | 1011.1 hPa | 0 mm | - | 185 W/m² | - |
| 1777068070 | 25.56° C | 47% | 1011.3 hPa | 0 mm | - | 216 W/m² | - |
| 1777067769 | 25° C | 47% | 1011.3 hPa | 0 mm | - | 78 W/m² | - |
| 1777067463 | 25° C | 47% | 1011.3 hPa | 0 mm | - | 58 W/m² | - |
| 1777067161 | 25.56° C | 45% | 1011.3 hPa | 0 mm | - | 62 W/m² | - |
| 1777066858 | 25.56° C | 45% | 1011.2 hPa | 0 mm | - | 64 W/m² | - |
| 1777066553 | 25.56° C | 46% | 1011.3 hPa | 0 mm | - | 62 W/m² | - |
| 1777066249 | 26.11° C | 44% | 1011.3 hPa | 0 mm | - | 62 W/m² | - |
* Rain latest hour (hover to see other rain measurements)
** Current wind speed in m/s (hover to see current wind gust speed)